Time,TemperatureF,DewpointF,PressureIn,WindDirection,WindDirectionDegrees,WindSpeedMPH,WindSpeedGustMPH,Humidity,HourlyPrecipIn,Conditions,Clouds,dailyrainin,SoftwareType,DateUTC
2013-09-11 00:00:00,76.7,72.9,30.05,North,360,2.0,4.0,88,0.00,,---,0.00,VWS V14.01,2013-09-11 04:00:00,
2013-09-11 00:01:00,76.7,72.9,30.05,North,360,1.0,3.0,88,0.00,,---,0.00,VWS V14.01,2013-09-11 04:01:00,
2013-09-11 00:02:00,76.7,72.9,30.05,North,360,0.0,3.0,88,0.00,,---,0.00,VWS V14.01,2013-09-11 04:02:00,
2013-09-11 00:07:00,76.6,73.1,30.05,North,360,3.0,3.0,89,0.00,,---,0.00,VWS V14.01,2013-09-11 04:07:00,
2013-09-11 00:10:00,76.5,73.0,30.05,North,360,0.0,3.0,89,0.00,,---,0.00,VWS V14.01,2013-09-11 04:10:00,
2013-09-11 00:12:00,76.5,73.0,30.06,North,360,1.0,2.0,89,0.00,,---,0.00,VWS V14.01,2013-09-11 04:12:00,
2013-09-11 00:17:00,76.3,72.8,30.06,North,360,1.0,3.0,89,0.00,,---,0.00,VWS V14.01,2013-09-11 04:17:00,
2013-09-11 00:20:00,76.2,73.1,30.06,North,360,3.0,3.0,90,0.00,,---,0.00,VWS V14.01,2013-09-11 04:20:00,
2013-09-11 00:22:00,76.2,73.1,30.06,North,360,1.0,3.0,90,0.00,,---,0.00,VWS V14.01,2013-09-11 04:22:00,
2013-09-11 00:27:00,76.1,73.0,30.06,North,360,1.0,4.0,90,0.00,,---,0.00,VWS V14.01,2013-09-11 04:27:00,
2013-09-11 00:30:00,76.0,72.9,30.06,North,360,0.0,4.0,90,0.00,,---,0.00,VWS V14.01,2013-09-11 04:30:00,
2013-09-11 00:32:00,76.1,73.0,30.05,North,360,0.0,0.0,90,0.00,,---,0.00,VWS V14.01,2013-09-11 04:32:00,
2013-09-11 00:37:00,76.0,72.9,30.05,North,360,0.0,3.0,90,0.00,,---,0.00,VWS V14.01,2013-09-11 04:37:00,
2013-09-11 00:40:00,76.0,73.2,30.05,North,360,0.0,3.0,91,0.00,,---,0.00,VWS V14.01,2013-09-11 04:40:00,
2013-09-11 00:42:00,76.0,73.2,30.05,North,360,1.0,1.0,91,0.00,,---,0.00,VWS V14.01,2013-09-11 04:42:00,
2013-09-11 00:47:00,76.0,73.2,30.05,North,360,0.0,2.0,91,0.00,,---,0.00,VWS V14.01,2013-09-11 04:47:00,
2013-09-11 00:50:00,75.9,73.1,30.05,North,360,3.0,5.0,91,0.00,,---,0.00,VWS V14.01,2013-09-11 04:50:00,
2013-09-11 00:52:00,75.9,72.8,30.05,North,360,0.0,3.0,90,0.00,,---,0.00,VWS V14.01,2013-09-11 04:52:00,
2013-09-11 00:57:00,75.9,72.8,30.05,North,360,2.0,3.0,90,0.00,,---,0.00,VWS V14.01,2013-09-11 04:57:00,
2013-09-11 01:00:00,75.8,72.7,30.05,North,360,1.0,3.0,90,0.00,,---,0.00,VWS V14.01,2013-09-11 05:00:00,
2013-09-11 01:02:00,75.8,72.7,30.05,North,360,3.0,3.0,90,0.00,,---,0.00,VWS V14.01,2013-09-11 05:02:00,
2013-09-11 01:07:00,75.7,72.9,30.04,North,360,0.0,3.0,91,0.00,,---,0.00,VWS V14.01,2013-09-11 05:07:00,
2013-09-11 01:10:00,75.6,72.8,30.04,North,360,2.0,5.0,91,0.00,,---,0.00,VWS V14.01,2013-09-11 05:10:00,
2013-09-11 01:11:00,75.6,72.8,30.04,North,360,4.0,5.0,91,0.00,,---,0.00,VWS V14.01,2013-09-11 05:11:00,
2013-09-11 01:16:00,75.4,72.3,30.04,North,360,0.0,5.0,90,0.00,,---,0.00,VWS V14.01,2013-09-11 05:16:00,
2013-09-11 01:20:00,75.3,72.2,30.04,North,360,2.0,5.0,90,0.00,,---,0.00,VWS V14.01,2013-09-11 05:20:00,
2013-09-11 01:21:00,75.3,72.2,30.04,North,360,3.0,3.0,90,0.00,,---,0.00,VWS V14.01,2013-09-11 05:21:00,
2013-09-11 01:26:00,75.2,72.1,30.04,North,360,1.0,4.0,90,0.00,,---,0.00,VWS V14.01,2013-09-11 05:26:00,
2013-09-11 01:30:00,75.2,72.1,30.03,North,360,2.0,4.0,90,0.00,,---,0.00,VWS V14.01,2013-09-11 05:30:00,
2013-09-11 01:31:00,75.1,72.0,30.03,North,360,0.0,2.0,90,0.00,,---,0.00,VWS V14.01,2013-09-11 05:31:00,
2013-09-11 01:36:00,75.1,72.3,30.03,North,360,1.0,2.0,91,0.00,,---,0.00,VWS V14.01,2013-09-11 05:36:00,
2013-09-11 01:40:00,75.0,72.2,30.03,North,360,0.0,3.0,91,0.00,,---,0.00,VWS V14.01,2013-09-11 05:40:00,
2013-09-11 01:41:00,74.9,72.1,30.03,North,360,0.0,0.0,91,0.00,,---,0.00,VWS V14.01,2013-09-11 05:41:00,
2013-09-11 01:46:00,74.8,72.0,30.03,North,360,0.0,1.0,91,0.00,,---,0.00,VWS V14.01,2013-09-11 05:46:00,
2013-09-11 01:50:00,74.7,71.9,30.04,North,360,0.0,1.0,91,0.00,,---,0.00,VWS V14.01,2013-09-11 05:50:00,
2013-09-11 01:51:00,74.7,71.9,30.03,North,360,0.0,0.0,91,0.00,,---,0.00,VWS V14.01,2013-09-11 05:51:00,
2013-09-11 01:56:00,74.6,71.8,30.03,North,360,0.0,2.0,91,0.00,,---,0.00,VWS V14.01,2013-09-11 05:56:00,
2013-09-11 02:00:00,74.5,71.7,30.03,North,360,0.0,2.0,91,0.00,,---,0.00,VWS V14.01,2013-09-11 06:00:00,
2013-09-11 02:01:00,74.6,72.1,30.03,North,360,0.0,0.0,92,0.00,,---,0.00,VWS V14.01,2013-09-11 06:01:00,
2013-09-11 02:06:00,74.5,72.0,30.03,North,360,0.0,1.0,92,0.00,,---,0.00,VWS V14.01,2013-09-11 06:06:00,
2013-09-11 02:10:00,74.5,72.0,30.03,North,360,0.0,1.0,92,0.00,,---,0.00,VWS V14.01,2013-09-11 06:10:00,
2013-09-11 02:11:00,74.5,72.0,30.03,North,360,0.0,1.0,92,0.00,,---,0.00,VWS V14.01,2013-09-11 06:11:00,
2013-09-11 02:16:00,74.5,72.0,30.03,North,360,2.0,2.0,92,0.00,,---,0.00,VWS V14.01,2013-09-11 06:16:00,
2013-09-11 02:20:00,74.4,71.9,30.03,North,360,0.0,3.0,92,0.00,,---,0.00,VWS V14.01,2013-09-11 06:20:00,
2013-09-11 02:21:00,74.4,72.2,30.03,North,360,1.0,1.0,93,0.00,,---,0.00,VWS V14.01,2013-09-11 06:21:00,
2013-09-11 02:26:00,74.3,72.2,30.03,North,360,0.0,2.0,93,0.00,,---,0.00,VWS V14.01,2013-09-11 06:26:00,
2013-09-11 02:30:00,74.2,72.1,30.03,North,360,1.0,2.0,93,0.00,,---,0.00,VWS V14.01,2013-09-11 06:30:00,
2013-09-11 02:31:00,74.2,72.1,30.02,North,360,0.0,2.0,93,0.00,,---,0.00,VWS V14.01,2013-09-11 06:31:00,
2013-09-11 02:37:00,74.2,72.1,30.02,North,360,4.0,4.0,93,0.00,,---,0.00,VWS V14.01,2013-09-11 06:37:00,
2013-09-11 02:40:00,74.1,71.9,30.02,North,360,0.0,4.0,93,0.00,,---,0.00,VWS V14.01,2013-09-11 06:40:00,
2013-09-11 02:42:00,74.1,71.9,30.02,North,360,0.0,0.0,93,0.00,,---,0.00,VWS V14.01,2013-09-11 06:42:00,
2013-09-11 02:47:00,74.0,71.8,30.02,North,360,0.0,2.0,93,0.00,,---,0.00,VWS V14.01,2013-09-11 06:47:00,
2013-09-11 02:50:00,73.9,71.8,30.02,North,360,0.0,2.0,93,0.00,,---,0.00,VWS V14.01,2013-09-11 06:50:00,
2013-09-11 02:52:00,73.9,71.8,30.02,North,360,0.0,0.0,93,0.00,,---,0.00,VWS V14.01,2013-09-11 06:52:00,
2013-09-11 02:57:00,73.8,71.7,30.02,North,360,0.0,1.0,93,0.00,,---,0.00,VWS V14.01,2013-09-11 06:57:00,
2013-09-11 03:00:00,73.8,71.7,30.02,North,360,0.0,2.0,93,0.00,,---,0.00,VWS V14.01,2013-09-11 07:00:00,
2013-09-11 03:02:00,73.8,71.7,30.02,North,360,1.0,1.0,93,0.00,,---,0.00,VWS V14.01,2013-09-11 07:02:00,
2013-09-11 03:07:00,73.8,72.0,30.02,North,360,3.0,5.0,94,0.00,,---,0.00,VWS V14.01,2013-09-11 07:07:00,
2013-09-11 03:10:00,73.7,71.9,30.02,North,360,1.0,5.0,94,0.00,,---,0.00,VWS V14.01,2013-09-11 07:10:00,
2013-09-11 03:12:00,73.7,71.9,30.02,North,360,1.0,2.0,94,0.00,,---,0.00,VWS V14.01,2013-09-11 07:12:00,
2013-09-11 03:17:00,73.8,72.0,30.02,North,360,2.0,5.0,94,0.00,,---,0.00,VWS V14.01,2013-09-11 07:17:00,
2013-09-11 03:20:00,73.8,72.0,30.01,North,360,3.0,6.0,94,0.00,,---,0.00,VWS V14.01,2013-09-11 07:20:00,
2013-09-11 03:22:00,73.8,72.0,30.02,North,360,3.0,4.0,94,0.00,,---,0.00,VWS V14.01,2013-09-11 07:22:00,
2013-09-11 03:27:00,73.9,72.1,30.01,North,360,2.0,6.0,94,0.00,,---,0.00,VWS V14.01,2013-09-11 07:27:00,
2013-09-11 03:30:00,74.0,72.2,30.01,North,360,4.0,6.0,94,0.00,,---,0.00,VWS V14.01,2013-09-11 07:30:00,
2013-09-11 03:32:00,74.0,72.2,30.01,North,360,6.0,6.0,94,0.00,,---,0.00,VWS V14.01,2013-09-11 07:32:00,
2013-09-11 03:37:00,74.0,72.2,30.01,North,360,3.0,6.0,94,0.00,,---,0.00,VWS V14.01,2013-09-11 07:37:00,
2013-09-11 03:40:00,74.1,72.3,30.01,North,360,3.0,6.0,94,0.00,,---,0.00,VWS V14.01,2013-09-11 07:40:00,
2013-09-11 03:42:00,74.1,72.3,30.01,North,360,2.0,6.0,94,0.00,,---,0.00,VWS V14.01,2013-09-11 07:42:00,
2013-09-11 03:47:00,74.2,72.1,30.01,North,360,2.0,6.0,93,0.00,,---,0.00,VWS V14.01,2013-09-11 07:47:00,
2013-09-11 03:50:00,74.2,72.1,30.01,North,360,3.0,6.0,93,0.00,,---,0.00,VWS V14.01,2013-09-11 07:50:00,
2013-09-11 03:52:00,74.2,72.1,30.01,North,360,0.0,3.0,93,0.00,,---,0.00,VWS V14.01,2013-09-11 07:52:00,
2013-09-11 03:57:00,74.2,72.1,30.01,North,360,3.0,3.0,93,0.00,,---,0.00,VWS V14.01,2013-09-11 07:57:00,
2013-09-11 04:00:00,74.2,72.1,30.01,North,360,5.0,7.0,93,0.00,,---,0.00,VWS V14.01,2013-09-11 08:00:00,
2013-09-11 04:02:00,74.2,72.1,30.01,North,360,0.0,5.0,93,0.00,,---,0.00,VWS V14.01,2013-09-11 08:02:00,
2013-09-11 04:07:00,74.2,72.1,30.01,North,360,3.0,7.0,93,0.00,,---,0.00,VWS V14.01,2013-09-11 08:07:00,
2013-09-11 04:10:00,74.2,72.1,30.01,North,360,3.0,7.0,93,0.00,,---,0.00,VWS V14.01,2013-09-11 08:10:00,
2013-09-11 04:11:00,74.2,72.1,30.01,North,360,3.0,5.0,93,0.00,,---,0.00,VWS V14.01,2013-09-11 08:11:00,
2013-09-11 04:16:00,74.2,71.7,30.01,North,360,5.0,6.0,92,0.00,,---,0.00,VWS V14.01,2013-09-11 08:16:00,
2013-09-11 04:20:00,74.2,71.7,30.01,North,360,0.0,6.0,92,0.00,,---,0.00,VWS V14.01,2013-09-11 08:20:00,
2013-09-11 04:21:00,74.2,71.7,30.01,North,360,3.0,4.0,92,0.00,,---,0.00,VWS V14.01,2013-09-11 08:21:00,
2013-09-11 04:26:00,74.2,71.7,30.01,North,360,1.0,4.0,92,0.00,,---,0.00,VWS V14.01,2013-09-11 08:26:00,
2013-09-11 04:30:00,74.1,71.6,30.01,North,360,3.0,6.0,92,0.00,,---,0.00,VWS V14.01,2013-09-11 08:30:00,
2013-09-11 04:31:00,74.1,71.6,30.01,North,360,4.0,5.0,92,0.00,,---,0.00,VWS V14.01,2013-09-11 08:31:00,
2013-09-11 04:36:00,74.0,71.5,30.01,North,360,5.0,8.0,92,0.00,,---,0.00,VWS V14.01,2013-09-11 08:36:00,
2013-09-11 04:40:00,74.1,71.6,30.01,North,360,4.0,9.0,92,0.00,,---,0.00,VWS V14.01,2013-09-11 08:40:00,
2013-09-11 04:41:00,74.1,71.6,30.01,North,360,4.0,5.0,92,0.00,,---,0.00,VWS V14.01,2013-09-11 08:41:00,
2013-09-11 04:46:00,74.1,71.6,30.01,North,360,3.0,6.0,92,0.00,,---,0.00,VWS V14.01,2013-09-11 08:46:00,
2013-09-11 04:50:00,74.2,71.7,30.01,North,360,10.0,10.0,92,0.00,,---,0.00,VWS V14.01,2013-09-11 08:50:00,
2013-09-11 04:51:00,74.2,71.7,30.01,North,360,8.0,10.0,92,0.00,,---,0.00,VWS V14.01,2013-09-11 08:51:00,
2013-09-11 04:56:00,74.3,71.8,30.02,North,360,3.0,10.0,92,0.00,,---,0.00,VWS V14.01,2013-09-11 08:56:00,
2013-09-11 05:00:00,74.4,71.9,30.02,North,360,4.0,10.0,92,0.00,,---,0.00,VWS V14.01,2013-09-11 09:00:00,
2013-09-11 05:01:00,74.4,71.9,30.02,North,360,3.0,4.0,92,0.00,,---,0.00,VWS V14.01,2013-09-11 09:01:00,
2013-09-11 05:07:00,74.4,71.9,30.02,North,360,1.0,5.0,92,0.00,,---,0.00,VWS V14.01,2013-09-11 09:07:00,
2013-09-11 05:10:00,74.5,72.0,30.01,North,360,1.0,5.0,92,0.00,,---,0.00,VWS V14.01,2013-09-11 09:10:00,
2013-09-11 05:12:00,74.5,72.0,30.02,North,360,2.0,2.0,92,0.00,,---,0.00,VWS V14.01,2013-09-11 09:12:00,
2013-09-11 05:17:00,74.5,72.0,30.01,North,360,4.0,4.0,92,0.00,,---,0.00,VWS V14.01,2013-09-11 09:17:00,
2013-09-11 05:20:00,74.5,72.3,30.01,North,360,5.0,6.0,93,0.00,,---,0.00,VWS V14.01,2013-09-11 09:20:00,
2013-09-11 05:22:00,74.6,72.4,30.01,North,360,4.0,6.0,93,0.00,,---,0.00,VWS V14.01,2013-09-11 09:22:00,
2013-09-11 05:27:00,74.7,72.6,30.01,North,360,8.0,9.0,93,0.00,,---,0.00,VWS V14.01,2013-09-11 09:27:00,
2013-09-11 05:30:00,74.7,72.5,30.01,North,360,4.0,9.0,93,0.00,,---,0.00,VWS V14.01,2013-09-11 09:30:00,
2013-09-11 05:32:00,74.7,72.6,30.01,North,360,6.0,6.0,93,0.00,,---,0.00,VWS V14.01,2013-09-11 09:32:00,
2013-09-11 05:37:00,74.7,72.6,30.01,North,360,6.0,6.0,93,0.00,,---,0.00,VWS V14.01,2013-09-11 09:37:00,
2013-09-11 05:40:00,74.6,72.4,30.01,North,360,5.0,7.0,93,0.00,,---,0.00,VWS V14.01,2013-09-11 09:40:00,
2013-09-11 05:42:00,74.7,72.6,30.01,North,360,4.0,5.0,93,0.00,,---,0.00,VWS V14.01,2013-09-11 09:42:00,
2013-09-11 05:47:00,74.6,72.4,30.02,North,360,5.0,7.0,93,0.00,,---,0.00,VWS V14.01,2013-09-11 09:47:00,
2013-09-11 05:50:00,74.5,72.3,30.02,North,360,4.0,7.0,93,0.00,,---,0.00,VWS V14.01,2013-09-11 09:50:00,
2013-09-11 05:52:00,74.5,72.3,30.02,North,360,5.0,6.0,93,0.00,,---,0.00,VWS V14.01,2013-09-11 09:52:00,
2013-09-11 05:57:00,74.4,72.2,30.01,North,360,5.0,6.0,93,0.00,,---,0.00,VWS V14.01,2013-09-11 09:57:00,
2013-09-11 06:00:00,74.5,72.7,30.02,North,360,6.0,7.0,94,0.00,,---,0.00,VWS V14.01,2013-09-11 10:00:00,
2013-09-11 06:02:00,74.4,72.6,30.02,North,360,6.0,9.0,94,0.00,,---,0.00,VWS V14.01,2013-09-11 10:02:00,
2013-09-11 06:07:00,74.5,72.7,30.02,North,360,4.0,9.0,94,0.00,,---,0.00,VWS V14.01,2013-09-11 10:07:00,
2013-09-11 06:10:00,74.6,72.8,30.02,North,360,3.0,9.0,94,0.00,,---,0.00,VWS V14.01,2013-09-11 10:10:00,
2013-09-11 06:12:00,74.6,72.8,30.02,North,360,4.0,7.0,94,0.00,,---,0.00,VWS V14.01,2013-09-11 10:12:00,
2013-09-11 06:17:00,74.6,72.8,30.02,North,360,3.0,9.0,94,0.00,,---,0.00,VWS V14.01,2013-09-11 10:17:00,
2013-09-11 06:20:00,74.7,72.9,30.02,North,360,4.0,9.0,94,0.00,,---,0.00,VWS V14.01,2013-09-11 10:20:00,
2013-09-11 06:22:00,74.8,73.0,30.02,North,360,4.0,8.0,94,0.00,,---,0.00,VWS V14.01,2013-09-11 10:22:00,
2013-09-11 06:27:00,74.8,73.0,30.02,North,360,6.0,9.0,94,0.00,,---,0.00,VWS V14.01,2013-09-11 10:27:00,
2013-09-11 06:30:00,74.8,73.0,30.02,North,360,4.0,9.0,94,0.00,,---,0.00,VWS V14.01,2013-09-11 10:30:00,
2013-09-11 06:32:00,74.8,73.0,30.02,North,360,7.0,8.0,94,0.00,,---,0.00,VWS V14.01,2013-09-11 10:32:00,
2013-09-11 06:37:00,74.8,73.0,30.02,North,360,4.0,9.0,94,0.00,,---,0.00,VWS V14.01,2013-09-11 10:37:00,
2013-09-11 06:40:00,74.8,73.0,30.02,North,360,6.0,9.0,94,0.00,,---,0.00,VWS V14.01,2013-09-11 10:40:00,
2013-09-11 06:42:00,74.9,73.1,30.02,North,360,5.0,10.0,94,0.00,,---,0.00,VWS V14.01,2013-09-11 10:42:00,
2013-09-11 06:47:00,74.9,73.1,30.03,North,360,7.0,10.0,94,0.00,,---,0.00,VWS V14.01,2013-09-11 10:47:00,
2013-09-11 06:50:00,74.9,73.1,30.03,North,360,7.0,10.0,94,0.00,,---,0.00,VWS V14.01,2013-09-11 10:50:00,
2013-09-11 06:52:00,74.9,73.1,30.03,North,360,7.0,7.0,94,0.00,,---,0.00,VWS V14.01,2013-09-11 10:52:00,
2013-09-11 06:57:00,74.9,73.1,30.03,North,360,4.0,8.0,94,0.00,,---,0.00,VWS V14.01,2013-09-11 10:57:00,
2013-09-11 07:00:00,74.9,73.1,30.04,North,360,4.0,8.0,94,0.00,,---,0.00,VWS V14.01,2013-09-11 11:00:00,
2013-09-11 07:02:00,75.0,73.2,30.04,North,360,2.0,5.0,94,0.00,,---,0.00,VWS V14.01,2013-09-11 11:02:00,
2013-09-11 07:07:00,75.0,73.2,30.04,North,360,3.0,6.0,94,0.00,,---,0.00,VWS V14.01,2013-09-11 11:07:00,
2013-09-11 07:10:00,75.0,73.2,30.04,North,360,0.0,6.0,94,0.00,,---,0.00,VWS V14.01,2013-09-11 11:10:00,
2013-09-11 07:12:00,74.9,73.1,30.04,North,360,1.0,2.0,94,0.00,,---,0.00,VWS V14.01,2013-09-11 11:12:00,
2013-09-11 07:17:00,74.9,73.1,30.04,North,360,2.0,6.0,94,0.00,,---,0.00,VWS V14.01,2013-09-11 11:17:00,
2013-09-11 07:20:00,74.9,73.1,30.04,North,360,5.0,6.0,94,0.00,,---,0.00,VWS V14.01,2013-09-11 11:20:00,
2013-09-11 07:22:00,74.9,73.1,30.04,North,360,3.0,8.0,94,0.00,,---,0.00,VWS V14.01,2013-09-11 11:22:00,
2013-09-11 07:27:00,75.0,73.2,30.04,North,360,4.0,8.0,94,0.00,,---,0.00,VWS V14.01,2013-09-11 11:27:00,
2013-09-11 07:30:00,75.0,73.2,30.04,North,360,8.0,9.0,94,0.00,,---,0.00,VWS V14.01,2013-09-11 11:30:00,
2013-09-11 07:32:00,75.0,73.2,30.04,North,360,3.0,8.0,94,0.00,,---,0.00,VWS V14.01,2013-09-11 11:32:00,
2013-09-11 07:37:00,75.1,73.3,30.04,North,360,4.0,8.0,94,0.00,,---,0.00,VWS V14.01,2013-09-11 11:37:00,
2013-09-11 07:40:00,75.2,73.4,30.03,North,360,3.0,8.0,94,0.00,,---,0.00,VWS V14.01,2013-09-11 11:40:00,
2013-09-11 07:42:00,75.2,73.4,30.04,North,360,4.0,5.0,94,0.00,,---,0.00,VWS V14.01,2013-09-11 11:42:00,
2013-09-11 07:47:00,75.6,73.8,30.03,North,360,5.0,8.0,94,0.00,,---,0.00,VWS V14.01,2013-09-11 11:47:00,
2013-09-11 07:50:00,76.0,74.2,30.04,North,360,5.0,8.0,94,0.00,,---,0.00,VWS V14.01,2013-09-11 11:50:00,
2013-09-11 07:52:00,76.1,73.9,30.03,North,360,5.0,7.0,93,0.00,,---,0.00,VWS V14.01,2013-09-11 11:52:00,
2013-09-11 07:57:00,76.7,74.2,30.03,North,360,3.0,10.0,92,0.00,,---,0.00,VWS V14.01,2013-09-11 11:57:00,
2013-09-11 08:00:00,77.2,74.7,30.04,North,360,5.0,10.0,92,0.00,,---,0.00,VWS V14.01,2013-09-11 12:00:00,
2013-09-11 08:02:00,77.3,74.5,30.04,North,360,4.0,6.0,91,0.00,,---,0.00,VWS V14.01,2013-09-11 12:02:00,
2013-09-11 08:07:00,77.9,74.7,30.04,North,360,3.0,8.0,90,0.00,,---,0.00,VWS V14.01,2013-09-11 12:07:00,
2013-09-11 08:10:00,78.2,74.7,30.04,North,360,4.0,8.0,89,0.00,,---,0.00,VWS V14.01,2013-09-11 12:10:00,
2013-09-11 08:12:00,78.3,74.8,30.04,North,360,6.0,7.0,89,0.00,,---,0.00,VWS V14.01,2013-09-11 12:12:00,
2013-09-11 08:17:00,78.7,74.8,30.05,North,360,4.0,8.0,88,0.00,,---,0.00,VWS V14.01,2013-09-11 12:17:00,
2013-09-11 08:20:00,79.0,75.2,30.05,North,360,3.0,8.0,88,0.00,,---,0.00,VWS V14.01,2013-09-11 12:20:00,
2013-09-11 08:22:00,79.0,74.8,30.05,North,360,5.0,8.0,87,0.00,,---,0.00,VWS V14.01,2013-09-11 12:22:00,
2013-09-11 08:27:00,79.1,74.9,30.05,North,360,9.0,10.0,87,0.00,,---,0.00,VWS V14.01,2013-09-11 12:27:00,
2013-09-11 08:30:00,79.1,74.9,30.05,North,360,6.0,10.0,87,0.00,,---,0.00,VWS V14.01,2013-09-11 12:30:00,
2013-09-11 08:32:00,79.2,75.0,30.05,North,360,4.0,7.0,87,0.00,,---,0.00,VWS V14.01,2013-09-11 12:32:00,
2013-09-11 08:37:00,79.5,75.3,30.05,North,360,7.0,9.0,87,0.00,,---,0.00,VWS V14.01,2013-09-11 12:37:00,
2013-09-11 08:40:00,79.9,75.7,30.05,North,360,4.0,9.0,87,0.00,,---,0.00,VWS V14.01,2013-09-11 12:40:00,
2013-09-11 08:42:00,80.0,75.4,30.05,North,360,6.0,7.0,86,0.00,,---,0.00,VWS V14.01,2013-09-11 12:42:00,
2013-09-11 08:47:00,80.3,75.0,30.06,North,360,5.0,11.0,84,0.00,,---,0.00,VWS V14.01,2013-09-11 12:47:00,
2013-09-11 08:50:00,80.4,75.1,30.05,North,360,5.0,11.0,84,0.00,,---,0.00,VWS V14.01,2013-09-11 12:50:00,
2013-09-11 08:52:00,80.5,75.2,30.06,North,360,6.0,10.0,84,0.00,,---,0.00,VWS V14.01,2013-09-11 12:52:00,
2013-09-11 08:57:00,80.8,75.2,30.06,North,360,7.0,10.0,83,0.00,,---,0.00,VWS V14.01,2013-09-11 12:57:00,
2013-09-11 09:00:00,80.7,75.1,30.06,North,360,2.0,10.0,83,0.00,,---,0.00,VWS V14.01,2013-09-11 13:00:00,
2013-09-11 09:02:00,80.7,75.1,30.06,North,360,6.0,6.0,83,0.00,,---,0.00,VWS V14.01,2013-09-11 13:02:00,
2013-09-11 09:07:00,80.8,75.2,30.05,North,360,12.0,15.0,83,0.00,,---,0.00,VWS V14.01,2013-09-11 13:07:00,
2013-09-11 09:10:00,81.2,75.2,30.06,North,360,9.0,15.0,82,0.00,,---,0.00,VWS V14.01,2013-09-11 13:10:00,
2013-09-11 09:12:00,81.3,75.3,30.06,North,360,4.0,10.0,82,0.00,,---,0.00,VWS V14.01,2013-09-11 13:12:00,
2013-09-11 09:17:00,81.3,74.5,30.06,North,360,7.0,14.0,80,0.00,,---,0.00,VWS V14.01,2013-09-11 13:17:00,
2013-09-11 09:20:00,81.3,74.5,30.06,North,360,9.0,14.0,80,0.00,,---,0.00,VWS V14.01,2013-09-11 13:20:00,
2013-09-11 09:22:00,81.4,75.0,30.06,North,360,9.0,11.0,81,0.00,,---,0.00,VWS V14.01,2013-09-11 13:22:00,
2013-09-11 09:27:00,81.4,74.3,30.06,North,360,11.0,14.0,79,0.00,,---,0.00,VWS V14.01,2013-09-11 13:27:00,
2013-09-11 09:30:00,81.7,74.9,30.06,North,360,10.0,16.0,80,0.00,,---,0.00,VWS V14.01,2013-09-11 13:30:00,
2013-09-11 09:32:00,81.8,74.7,30.06,North,360,12.0,13.0,79,0.00,,---,0.00,VWS V14.01,2013-09-11 13:32:00,
2013-09-11 09:37:00,82.3,75.1,30.06,North,360,11.0,14.0,79,0.00,,---,0.00,VWS V14.01,2013-09-11 13:37:00,
2013-09-11 09:40:00,82.4,74.9,30.06,North,360,7.0,16.0,78,0.00,,---,0.00,VWS V14.01,2013-09-11 13:40:00,
2013-09-11 09:42:00,82.3,74.4,30.06,North,360,14.0,15.0,77,0.00,,---,0.00,VWS V14.01,2013-09-11 13:42:00,
2013-09-11 09:47:00,81.9,74.0,30.06,North,360,10.0,15.0,77,0.00,,---,0.00,VWS V14.01,2013-09-11 13:47:00,
2013-09-11 09:50:00,82.0,74.8,30.06,North,360,7.0,18.0,79,0.00,,---,0.00,VWS V14.01,2013-09-11 13:50:00,
2013-09-11 09:52:00,82.1,74.6,30.06,North,360,8.0,13.0,78,0.00,,---,0.00,VWS V14.01,2013-09-11 13:52:00,
2013-09-11 09:57:00,83.0,74.7,30.06,North,360,11.0,17.0,76,0.00,,---,0.00,VWS V14.01,2013-09-11 13:57:00,
2013-09-11 10:00:00,83.2,74.8,30.06,North,360,8.0,17.0,76,0.00,,---,0.00,VWS V14.01,2013-09-11 14:00:00,
2013-09-11 10:02:00,83.3,74.9,30.06,North,360,6.0,11.0,76,0.00,,---,0.00,VWS V14.01,2013-09-11 14:02:00,
2013-09-11 10:06:00,83.8,74.6,30.06,North,360,8.0,12.0,74,0.00,,---,0.00,VWS V14.01,2013-09-11 14:06:00,
2013-09-11 10:10:00,83.6,74.4,30.06,North,360,7.0,14.0,74,0.00,,---,0.00,VWS V14.01,2013-09-11 14:10:00,
2013-09-11 10:11:00,83.7,74.5,30.06,North,360,8.0,8.0,74,0.00,,---,0.00,VWS V14.01,2013-09-11 14:11:00,
2013-09-11 10:16:00,84.4,74.8,30.06,North,360,5.0,13.0,73,0.00,,---,0.00,VWS V14.01,2013-09-11 14:16:00,
2013-09-11 10:20:00,84.3,74.3,30.06,North,360,11.0,16.0,72,0.00,,---,0.00,VWS V14.01,2013-09-11 14:20:00,
2013-09-11 10:21:00,84.3,75.1,30.06,North,360,6.0,11.0,74,0.00,,---,0.00,VWS V14.01,2013-09-11 14:21:00,
2013-09-11 10:26:00,84.6,75.0,30.06,North,360,7.0,11.0,73,0.00,,---,0.00,VWS V14.01,2013-09-11 14:26:00,
2013-09-11 10:30:00,84.6,74.6,30.06,North,360,9.0,11.0,72,0.00,,---,0.00,VWS V14.01,2013-09-11 14:30:00,
2013-09-11 10:31:00,84.6,74.6,30.06,North,360,4.0,10.0,72,0.00,,---,0.00,VWS V14.01,2013-09-11 14:31:00,
2013-09-11 10:36:00,84.8,74.4,30.06,North,360,11.0,13.0,71,0.00,,---,0.00,VWS V14.01,2013-09-11 14:36:00,
2013-09-11 10:40:00,84.7,72.5,30.06,North,360,12.0,14.0,67,0.00,,---,0.00,VWS V14.01,2013-09-11 14:40:00,
2013-09-11 10:41:00,84.7,72.5,30.06,North,360,4.0,15.0,67,0.00,,---,0.00,VWS V14.01,2013-09-11 14:41:00,
2013-09-11 10:46:00,85.1,72.9,30.06,North,360,7.0,15.0,67,0.00,,---,0.00,VWS V14.01,2013-09-11 14:46:00,
2013-09-11 10:50:00,85.3,72.7,30.06,North,360,11.0,15.0,66,0.00,,---,0.00,VWS V14.01,2013-09-11 14:50:00,
2013-09-11 10:51:00,85.2,72.6,30.06,North,360,9.0,12.0,66,0.00,,---,0.00,VWS V14.01,2013-09-11 14:51:00,
2013-09-11 10:56:00,84.9,72.3,30.06,North,360,11.0,15.0,66,0.00,,---,0.00,VWS V14.01,2013-09-11 14:56:00,
2013-09-11 11:00:00,85.2,73.0,30.06,North,360,10.0,15.0,67,0.00,,---,0.00,VWS V14.01,2013-09-11 15:00:00,
2013-09-11 11:01:00,85.4,73.2,30.06,North,360,11.0,13.0,67,0.00,,---,0.00,VWS V14.01,2013-09-11 15:01:00,
2013-09-11 11:06:00,85.8,73.1,30.06,North,360,13.0,15.0,66,0.00,,---,0.00,VWS V14.01,2013-09-11 15:06:00,
2013-09-11 11:10:00,85.9,73.7,30.06,North,360,11.0,15.0,67,0.00,,---,0.00,VWS V14.01,2013-09-11 15:10:00,
2013-09-11 11:11:00,86.0,74.2,30.06,North,360,10.0,12.0,68,0.00,,---,0.00,VWS V14.01,2013-09-11 15:11:00,
2013-09-11 11:17:00,85.8,74.0,30.06,North,360,9.0,14.0,68,0.00,,---,0.00,VWS V14.01,2013-09-11 15:17:00,
2013-09-11 11:20:00,85.8,74.0,30.06,North,360,7.0,14.0,68,0.00,,---,0.00,VWS V14.01,2013-09-11 15:20:00,
2013-09-11 11:22:00,85.7,74.4,30.06,North,360,5.0,7.0,69,0.00,,---,0.00,VWS V14.01,2013-09-11 15:22:00,
2013-09-11 11:27:00,86.4,74.6,30.05,North,360,8.0,11.0,68,0.00,,---,0.00,VWS V14.01,2013-09-11 15:27:00,
2013-09-11 11:30:00,86.3,73.2,30.05,North,360,9.0,13.0,65,0.00,,---,0.00,VWS V14.01,2013-09-11 15:30:00,
2013-09-11 11:32:00,86.4,74.2,30.05,North,360,7.0,12.0,67,0.00,,---,0.00,VWS V14.01,2013-09-11 15:32:00,
2013-09-11 11:36:00,87.2,74.9,30.05,North,360,4.0,13.0,67,0.00,,---,0.00,VWS V14.01,2013-09-11 15:36:00,
2013-09-11 11:40:00,87.1,73.9,30.05,North,360,2.0,13.0,65,0.00,,---,0.00,VWS V14.01,2013-09-11 15:40:00,
2013-09-11 11:41:00,86.8,73.6,30.05,North,360,6.0,9.0,65,0.00,,---,0.00,VWS V14.01,2013-09-11 15:41:00,
2013-09-11 11:46:00,86.5,74.2,30.05,North,360,8.0,9.0,67,0.00,,---,0.00,VWS V14.01,2013-09-11 15:46:00,
2013-09-11 11:50:00,86.8,73.6,30.05,North,360,8.0,13.0,65,0.00,,---,0.00,VWS V14.01,2013-09-11 15:50:00,
2013-09-11 11:51:00,86.7,72.1,30.05,North,360,4.0,9.0,62,0.00,,---,0.00,VWS V14.01,2013-09-11 15:51:00,
2013-09-11 11:56:00,87.2,73.6,30.05,North,360,6.0,13.0,64,0.00,,---,0.00,VWS V14.01,2013-09-11 15:56:00,
2013-09-11 12:00:00,87.9,75.1,30.05,North,360,8.0,13.0,66,0.00,,---,0.00,VWS V14.01,2013-09-11 16:00:00,
2013-09-11 12:01:00,88.0,74.8,30.05,North,360,9.0,10.0,65,0.00,,---,0.00,VWS V14.01,2013-09-11 16:01:00,
2013-09-11 12:06:00,88.0,73.4,30.05,North,360,5.0,11.0,62,0.00,,---,0.00,VWS V14.01,2013-09-11 16:06:00,
2013-09-11 12:10:00,88.2,74.0,30.04,North,360,4.0,11.0,63,0.00,,---,0.00,VWS V14.01,2013-09-11 16:10:00,
2013-09-11 12:11:00,88.1,74.4,30.05,North,360,9.0,10.0,64,0.00,,---,0.00,VWS V14.01,2013-09-11 16:11:00,
2013-09-11 12:16:00,87.3,73.2,30.05,North,360,8.0,13.0,63,0.00,,---,0.00,VWS V14.01,2013-09-11 16:16:00,
2013-09-11 12:20:00,87.5,73.8,30.05,North,360,10.0,15.0,64,0.00,,---,0.00,VWS V14.01,2013-09-11 16:20:00,
2013-09-11 12:21:00,87.7,73.1,30.05,North,360,12.0,12.0,62,0.00,,---,0.00,VWS V14.01,2013-09-11 16:21:00,
2013-09-11 12:26:00,88.1,71.5,30.05,North,360,10.0,19.0,58,0.00,,---,0.00,VWS V14.01,2013-09-11 16:26:00,
2013-09-11 12:30:00,88.2,71.1,30.05,North,360,6.0,19.0,57,0.00,,---,0.00,VWS V14.01,2013-09-11 16:30:00,
2013-09-11 12:31:00,88.2,72.6,30.05,North,360,7.0,11.0,60,0.00,,---,0.00,VWS V14.01,2013-09-11 16:31:00,
2013-09-11 12:36:00,88.9,70.7,30.05,North,360,12.0,18.0,55,0.00,,---,0.00,VWS V14.01,2013-09-11 16:36:00,
2013-09-11 12:40:00,88.6,70.9,30.05,North,360,7.0,18.0,56,0.00,,---,0.00,VWS V14.01,2013-09-11 16:40:00,
2013-09-11 12:41:00,88.7,72.0,30.05,North,360,6.0,9.0,58,0.00,,---,0.00,VWS V14.01,2013-09-11 16:41:00,
2013-09-11 12:46:00,88.7,69.9,30.05,North,360,9.0,18.0,54,0.00,,---,0.00,VWS V14.01,2013-09-11 16:46:00,
2013-09-11 12:50:00,88.0,69.3,30.05,North,360,6.0,18.0,54,0.00,,---,0.00,VWS V14.01,2013-09-11 16:50:00,
2013-09-11 12:51:00,88.0,70.9,30.05,North,360,8.0,13.0,57,0.00,,---,0.00,VWS V14.01,2013-09-11 16:51:00,
2013-09-11 12:56:00,88.3,70.1,30.04,North,360,8.0,17.0,55,0.00,,---,0.00,VWS V14.01,2013-09-11 16:56:00,
2013-09-11 13:00:00,88.6,71.4,30.04,North,360,6.0,17.0,57,0.00,,---,0.00,VWS V14.01,2013-09-11 17:00:00,
2013-09-11 13:01:00,88.7,70.5,30.04,North,360,7.0,12.0,55,0.00,,---,0.00,VWS V14.01,2013-09-11 17:01:00,
2013-09-11 13:06:00,89.0,70.2,30.04,North,360,16.0,20.0,54,0.00,,---,0.00,VWS V14.01,2013-09-11 17:06:00,
2013-09-11 13:10:00,88.9,71.2,30.04,North,360,8.0,20.0,56,0.00,,---,0.00,VWS V14.01,2013-09-11 17:10:00,
2013-09-11 13:11:00,88.9,70.1,30.04,North,360,8.0,12.0,54,0.00,,---,0.00,VWS V14.01,2013-09-11 17:11:00,
2013-09-11 13:16:00,88.8,70.6,30.04,North,360,6.0,14.0,55,0.00,,---,0.00,VWS V14.01,2013-09-11 17:16:00,
2013-09-11 13:20:00,88.7,69.9,30.04,North,360,9.0,16.0,54,0.00,,---,0.00,VWS V14.01,2013-09-11 17:20:00,
2013-09-11 13:21:00,88.8,70.0,30.03,North,360,7.0,13.0,54,0.00,,---,0.00,VWS V14.01,2013-09-11 17:21:00,
2013-09-11 13:26:00,89.2,69.8,30.03,North,360,7.0,17.0,53,0.00,,---,0.00,VWS V14.01,2013-09-11 17:26:00,
2013-09-11 13:30:00,89.0,70.8,30.03,North,360,5.0,17.0,55,0.00,,---,0.00,VWS V14.01,2013-09-11 17:30:00,
2013-09-11 13:31:00,89.0,71.8,30.03,North,360,9.0,11.0,57,0.00,,---,0.00,VWS V14.01,2013-09-11 17:31:00,
2013-09-11 13:36:00,89.4,72.2,30.03,North,360,10.0,16.0,57,0.00,,---,0.00,VWS V14.01,2013-09-11 17:36:00,
2013-09-11 13:40:00,89.7,71.4,30.03,North,360,8.0,16.0,55,0.00,,---,0.00,VWS V14.01,2013-09-11 17:40:00,
2013-09-11 13:41:00,89.7,71.4,30.03,North,360,11.0,14.0,55,0.00,,---,0.00,VWS V14.01,2013-09-11 17:41:00,
2013-09-11 13:46:00,89.6,71.3,30.03,North,360,3.0,14.0,55,0.00,,---,0.00,VWS V14.01,2013-09-11 17:46:00,
2013-09-11 13:50:00,89.9,71.6,30.02,North,360,7.0,14.0,55,0.00,,---,0.00,VWS V14.01,2013-09-11 17:50:00,
2013-09-11 13:51:00,89.9,72.1,30.02,North,360,5.0,8.0,56,0.00,,---,0.00,VWS V14.01,2013-09-11 17:51:00,
2013-09-11 13:56:00,90.1,72.8,30.02,North,360,11.0,12.0,57,0.00,,---,0.00,VWS V14.01,2013-09-11 17:56:00,
2013-09-11 14:00:00,90.1,73.8,30.01,North,360,5.0,12.0,59,0.00,,---,0.00,VWS V14.01,2013-09-11 18:00:00,
2013-09-11 14:01:00,90.0,73.2,30.01,North,360,12.0,12.0,58,0.00,,---,0.00,VWS V14.01,2013-09-11 18:01:00,
2013-09-11 14:06:00,89.4,71.1,30.01,North,360,13.0,17.0,55,0.00,,---,0.00,VWS V14.01,2013-09-11 18:06:00,
2013-09-11 14:10:00,89.2,70.9,30.01,North,360,11.0,17.0,55,0.00,,---,0.00,VWS V14.01,2013-09-11 18:10:00,
2013-09-11 14:11:00,89.2,70.9,30.01,North,360,13.0,17.0,55,0.00,,---,0.00,VWS V14.01,2013-09-11 18:11:00,
2013-09-11 14:16:00,89.5,70.7,30.01,North,360,10.0,17.0,54,0.00,,---,0.00,VWS V14.01,2013-09-11 18:16:00,
2013-09-11 14:20:00,89.6,70.2,30.01,North,360,8.0,17.0,53,0.00,,---,0.00,VWS V14.01,2013-09-11 18:20:00,
2013-09-11 14:21:00,89.6,69.7,30.01,North,360,5.0,8.0,52,0.00,,---,0.00,VWS V14.01,2013-09-11 18:21:00,
2013-09-11 14:26:00,89.5,72.3,30.01,North,360,7.0,10.0,57,0.00,,---,0.00,VWS V14.01,2013-09-11 18:26:00,
2013-09-11 14:31:00,89.0,73.3,30.00,North,360,8.0,10.0,60,0.00,,---,0.00,VWS V14.01,2013-09-11 18:31:00,
2013-09-11 14:36:00,89.2,73.0,30.00,North,360,9.0,12.0,59,0.00,,---,0.00,VWS V14.01,2013-09-11 18:36:00,
2013-09-11 14:40:00,89.6,72.9,30.00,North,360,12.0,15.0,58,0.00,,---,0.00,VWS V14.01,2013-09-11 18:40:00,
2013-09-11 14:41:00,89.5,72.3,30.00,North,360,11.0,15.0,57,0.00,,---,0.00,VWS V14.01,2013-09-11 18:41:00,
2013-09-11 14:46:00,89.2,72.5,30.00,North,360,10.0,15.0,58,0.00,,---,0.00,VWS V14.01,2013-09-11 18:46:00,
2013-09-11 14:50:00,89.3,72.6,30.00,North,360,4.0,15.0,58,0.00,,---,0.00,VWS V14.01,2013-09-11 18:50:00,
2013-09-11 14:51:00,89.5,74.8,29.99,North,360,3.0,5.0,62,0.00,,---,0.00,VWS V14.01,2013-09-11 18:51:00,
2013-09-11 14:56:00,90.2,72.9,29.99,North,360,8.0,10.0,57,0.00,,---,0.00,VWS V14.01,2013-09-11 18:56:00,
2013-09-11 15:00:00,89.7,74.0,29.99,North,360,11.0,11.0,60,0.00,,---,0.00,VWS V14.01,2013-09-11 19:00:00,
2013-09-11 15:01:00,89.6,73.4,29.99,North,360,6.0,12.0,59,0.00,,---,0.00,VWS V14.01,2013-09-11 19:01:00,
2013-09-11 15:06:00,89.6,73.9,29.99,North,360,9.0,13.0,60,0.00,,---,0.00,VWS V14.01,2013-09-11 19:06:00,
2013-09-11 15:10:00,89.7,74.5,29.99,North,360,5.0,13.0,61,0.00,,---,0.00,VWS V14.01,2013-09-11 19:10:00,
2013-09-11 15:11:00,89.8,74.6,29.99,North,360,6.0,8.0,61,0.00,,---,0.00,VWS V14.01,2013-09-11 19:11:00,
2013-09-11 15:16:00,89.5,73.8,29.98,North,360,4.0,14.0,60,0.00,,---,0.00,VWS V14.01,2013-09-11 19:16:00,
2013-09-11 15:20:00,89.0,72.3,29.98,North,360,8.0,14.0,58,0.00,,---,0.00,VWS V14.01,2013-09-11 19:20:00,
2013-09-11 15:21:00,88.9,74.2,29.98,North,360,3.0,9.0,62,0.00,,---,0.00,VWS V14.01,2013-09-11 19:21:00,
2013-09-11 15:26:00,89.2,73.0,29.98,North,360,10.0,17.0,59,0.00,,---,0.00,VWS V14.01,2013-09-11 19:26:00,
2013-09-11 15:30:00,89.4,74.7,29.98,North,360,10.0,17.0,62,0.00,,---,0.00,VWS V14.01,2013-09-11 19:30:00,
2013-09-11 15:31:00,89.4,73.7,29.98,North,360,7.0,10.0,60,0.00,,---,0.00,VWS V14.01,2013-09-11 19:31:00,
2013-09-11 15:36:00,88.8,73.6,29.98,North,360,7.0,14.0,61,0.00,,---,0.00,VWS V14.01,2013-09-11 19:36:00,
2013-09-11 15:40:00,89.5,73.8,29.98,North,360,8.0,14.0,60,0.00,,---,0.00,VWS V14.01,2013-09-11 19:40:00,
2013-09-11 15:41:00,89.6,73.9,29.98,North,360,8.0,9.0,60,0.00,,---,0.00,VWS V14.01,2013-09-11 19:41:00,
2013-09-11 15:46:00,89.6,72.9,29.98,North,360,5.0,13.0,58,0.00,,---,0.00,VWS V14.01,2013-09-11 19:46:00,
2013-09-11 15:50:00,89.9,75.6,29.98,North,360,4.0,13.0,63,0.00,,---,0.00,VWS V14.01,2013-09-11 19:50:00,
2013-09-11 15:51:00,89.8,74.6,29.98,North,360,6.0,7.0,61,0.00,,---,0.00,VWS V14.01,2013-09-11 19:51:00,
2013-09-11 15:56:00,89.3,74.6,29.98,North,360,10.0,10.0,62,0.00,,---,0.00,VWS V14.01,2013-09-11 19:56:00,
2013-09-11 16:00:00,88.2,73.1,29.98,North,360,12.0,12.0,61,0.00,,---,0.00,VWS V14.01,2013-09-11 20:00:00,
2013-09-11 16:01:00,88.1,72.5,29.98,North,360,9.0,12.0,60,0.00,,---,0.00,VWS V14.01,2013-09-11 20:01:00,
2013-09-11 16:06:00,88.3,74.1,29.97,North,360,7.0,12.0,63,0.00,,---,0.00,VWS V14.01,2013-09-11 20:06:00,
2013-09-11 16:10:00,89.3,73.1,29.97,North,360,7.0,12.0,59,0.00,,---,0.00,VWS V14.01,2013-09-11 20:10:00,
2013-09-11 16:11:00,89.4,73.7,29.97,North,360,8.0,11.0,60,0.00,,---,0.00,VWS V14.01,2013-09-11 20:11:00,
2013-09-11 16:16:00,89.9,73.2,29.97,North,360,3.0,11.0,58,0.00,,---,0.00,VWS V14.01,2013-09-11 20:16:00,
2013-09-11 16:20:00,89.5,74.3,29.97,North,360,6.0,11.0,61,0.00,,---,0.00,VWS V14.01,2013-09-11 20:20:00,
2013-09-11 16:21:00,89.4,73.2,29.97,North,360,5.0,10.0,59,0.00,,---,0.00,VWS V14.01,2013-09-11 20:21:00,
2013-09-11 16:26:00,88.4,73.2,29.97,North,360,10.0,12.0,61,0.00,,---,0.00,VWS V14.01,2013-09-11 20:26:00,
2013-09-11 16:30:00,87.7,73.6,29.97,North,360,4.0,12.0,63,0.00,,---,0.00,VWS V14.01,2013-09-11 20:30:00,
2013-09-11 16:31:00,87.6,73.5,29.97,North,360,7.0,7.0,63,0.00,,---,0.00,VWS V14.01,2013-09-11 20:31:00,
2013-09-11 16:36:00,86.9,72.3,29.98,North,360,4.0,10.0,62,0.00,,---,0.00,VWS V14.01,2013-09-11 20:36:00,
2013-09-11 16:40:00,86.6,72.0,29.97,North,360,4.0,10.0,62,0.00,,---,0.00,VWS V14.01,2013-09-11 20:40:00,
2013-09-11 16:41:00,86.5,71.5,29.97,North,360,5.0,5.0,61,0.00,,---,0.00,VWS V14.01,2013-09-11 20:41:00,
2013-09-11 16:46:00,86.3,71.3,29.98,North,360,2.0,8.0,61,0.00,,---,0.00,VWS V14.01,2013-09-11 20:46:00,
2013-09-11 16:50:00,86.3,71.8,29.98,North,360,1.0,8.0,62,0.00,,---,0.00,VWS V14.01,2013-09-11 20:50:00,
2013-09-11 16:51:00,86.2,71.7,29.98,North,360,6.0,8.0,62,0.00,,---,0.00,VWS V14.01,2013-09-11 20:51:00,
2013-09-11 16:56:00,86.0,71.0,29.98,North,360,6.0,8.0,61,0.00,,---,0.00,VWS V14.01,2013-09-11 20:56:00,
2013-09-11 17:00:00,85.9,70.9,29.98,North,360,3.0,8.0,61,0.00,,---,0.00,VWS V14.01,2013-09-11 21:00:00,
2013-09-11 17:01:00,85.9,71.4,29.98,North,360,8.0,8.0,62,0.00,,---,0.00,VWS V14.01,2013-09-11 21:01:00,
2013-09-11 17:06:00,85.7,70.7,29.97,North,360,5.0,8.0,61,0.00,,---,0.00,VWS V14.01,2013-09-11 21:06:00,
2013-09-11 17:10:00,85.6,70.6,29.97,North,360,8.0,8.0,61,0.00,,---,0.00,VWS V14.01,2013-09-11 21:10:00,
2013-09-11 17:11:00,85.6,70.6,29.97,North,360,7.0,11.0,61,0.00,,---,0.00,VWS V14.01,2013-09-11 21:11:00,
2013-09-11 17:16:00,85.6,70.6,29.98,North,360,7.0,11.0,61,0.00,,---,0.00,VWS V14.01,2013-09-11 21:16:00,
2013-09-11 17:20:00,85.6,70.6,29.98,North,360,2.0,11.0,61,0.00,,---,0.00,VWS V14.01,2013-09-11 21:20:00,
2013-09-11 17:21:00,85.6,70.6,29.98,North,360,5.0,7.0,61,0.00,,---,0.00,VWS V14.01,2013-09-11 21:21:00,
2013-09-11 17:26:00,85.4,70.4,29.98,North,360,6.0,9.0,61,0.00,,---,0.00,VWS V14.01,2013-09-11 21:26:00,
2013-09-11 17:30:00,85.3,70.3,29.98,North,360,7.0,9.0,61,0.00,,---,0.00,VWS V14.01,2013-09-11 21:30:00,
2013-09-11 17:31:00,85.3,70.3,29.98,North,360,3.0,7.0,61,0.00,,---,0.00,VWS V14.01,2013-09-11 21:31:00,
2013-09-11 17:36:00,85.0,70.5,29.98,North,360,2.0,8.0,62,0.00,,---,0.00,VWS V14.01,2013-09-11 21:36:00,
2013-09-11 17:40:00,84.9,70.9,29.98,North,360,0.0,8.0,63,0.00,,---,0.00,VWS V14.01,2013-09-11 21:40:00,
2013-09-11 17:41:00,84.9,70.9,29.98,North,360,2.0,2.0,63,0.00,,---,0.00,VWS V14.01,2013-09-11 21:41:00,
2013-09-11 17:46:00,84.8,71.3,29.98,North,360,3.0,7.0,64,0.00,,---,0.00,VWS V14.01,2013-09-11 21:46:00,
2013-09-11 17:50:00,84.9,71.4,29.98,North,360,2.0,7.0,64,0.00,,---,0.00,VWS V14.01,2013-09-11 21:50:00,
2013-09-11 17:51:00,84.8,71.3,29.98,North,360,4.0,4.0,64,0.00,,---,0.00,VWS V14.01,2013-09-11 21:51:00,
2013-09-11 17:56:00,85.3,71.3,29.98,North,360,8.0,9.0,63,0.00,,---,0.00,VWS V14.01,2013-09-11 21:56:00,
2013-09-11 18:00:00,85.6,71.1,29.98,North,360,4.0,10.0,62,0.00,,---,0.00,VWS V14.01,2013-09-11 22:00:00,
2013-09-11 18:01:00,85.6,71.1,29.98,North,360,4.0,5.0,62,0.00,,---,0.00,VWS V14.01,2013-09-11 22:01:00,
2013-09-11 18:06:00,85.7,71.2,29.98,North,360,3.0,8.0,62,0.00,,---,0.00,VWS V14.01,2013-09-11 22:06:00,
2013-09-11 18:10:00,85.7,71.2,29.98,North,360,1.0,8.0,62,0.00,,---,0.00,VWS V14.01,2013-09-11 22:10:00,
2013-09-11 18:11:00,85.7,71.2,29.98,North,360,5.0,5.0,62,0.00,,---,0.00,VWS V14.01,2013-09-11 22:11:00,
2013-09-11 18:16:00,85.9,71.4,29.98,North,360,2.0,7.0,62,0.00,,---,0.00,VWS V14.01,2013-09-11 22:16:00,
2013-09-11 18:20:00,85.8,71.3,29.98,North,360,5.0,7.0,62,0.00,,---,0.00,VWS V14.01,2013-09-11 22:20:00,
2013-09-11 18:21:00,85.8,70.8,29.98,North,360,4.0,6.0,61,0.00,,---,0.00,VWS V14.01,2013-09-11 22:21:00,
2013-09-11 18:26:00,85.6,70.6,29.98,North,360,5.0,9.0,61,0.00,,---,0.00,VWS V14.01,2013-09-11 22:26:00,
2013-09-11 18:30:00,85.6,70.1,29.98,North,360,5.0,10.0,60,0.00,,---,0.00,VWS V14.01,2013-09-11 22:30:00,
2013-09-11 18:31:00,85.6,70.1,29.98,North,360,4.0,6.0,60,0.00,,---,0.00,VWS V14.01,2013-09-11 22:31:00,
2013-09-11 18:36:00,85.8,70.3,29.98,North,360,5.0,10.0,60,0.00,,---,0.00,VWS V14.01,2013-09-11 22:36:00,
2013-09-11 18:40:00,86.0,70.5,29.98,North,360,5.0,10.0,60,0.00,,---,0.00,VWS V14.01,2013-09-11 22:40:00,
2013-09-11 18:41:00,86.0,70.5,29.98,North,360,3.0,5.0,60,0.00,,---,0.00,VWS V14.01,2013-09-11 22:41:00,
2013-09-11 18:46:00,86.0,70.5,29.98,North,360,3.0,9.0,60,0.00,,---,0.00,VWS V14.01,2013-09-11 22:46:00,
2013-09-11 18:50:00,85.9,70.9,29.98,North,360,6.0,10.0,61,0.00,,---,0.00,VWS V14.01,2013-09-11 22:50:00,
2013-09-11 18:51:00,85.9,71.4,29.98,North,360,4.0,6.0,62,0.00,,---,0.00,VWS V14.01,2013-09-11 22:51:00,
2013-09-11 18:56:00,85.4,71.4,29.98,North,360,4.0,7.0,63,0.00,,---,0.00,VWS V14.01,2013-09-11 22:56:00,
2013-09-11 19:00:00,85.1,71.6,29.98,North,360,4.0,10.0,64,0.00,,---,0.00,VWS V14.01,2013-09-11 23:00:00,
2013-09-11 19:01:00,85.0,71.5,29.98,North,360,5.0,6.0,64,0.00,,---,0.00,VWS V14.01,2013-09-11 23:01:00,
2013-09-11 19:06:00,84.7,72.1,29.98,North,360,2.0,8.0,66,0.00,,---,0.00,VWS V14.01,2013-09-11 23:06:00,
2013-09-11 19:10:00,84.4,72.2,29.98,North,360,4.0,8.0,67,0.00,,---,0.00,VWS V14.01,2013-09-11 23:10:00,
2013-09-11 19:11:00,84.4,72.2,29.98,North,360,2.0,4.0,67,0.00,,---,0.00,VWS V14.01,2013-09-11 23:11:00,
2013-09-11 19:16:00,84.0,72.3,29.98,North,360,4.0,5.0,68,0.00,,---,0.00,VWS V14.01,2013-09-11 23:16:00,
2013-09-11 19:20:00,83.8,72.6,29.98,North,360,3.0,6.0,69,0.00,,---,0.00,VWS V14.01,2013-09-11 23:20:00,
2013-09-11 19:21:00,83.8,72.6,29.98,North,360,3.0,3.0,69,0.00,,---,0.00,VWS V14.01,2013-09-11 23:21:00,
2013-09-11 19:26:00,83.4,72.6,29.98,North,360,4.0,5.0,70,0.00,,---,0.00,VWS V14.01,2013-09-11 23:26:00,
2013-09-11 19:30:00,83.2,72.4,29.99,North,360,3.0,5.0,70,0.00,,---,0.00,VWS V14.01,2013-09-11 23:30:00,
2013-09-11 19:31:00,83.2,72.4,29.98,North,360,1.0,3.0,70,0.00,,---,0.00,VWS V14.01,2013-09-11 23:31:00,
2013-09-11 19:36:00,82.9,72.1,29.99,North,360,2.0,5.0,70,0.00,,---,0.00,VWS V14.01,2013-09-11 23:36:00,
2013-09-11 19:40:00,82.6,72.2,29.98,North,360,1.0,6.0,71,0.00,,---,0.00,VWS V14.01,2013-09-11 23:40:00,
2013-09-11 19:41:00,82.6,72.2,29.99,North,360,0.0,1.0,71,0.00,,---,0.00,VWS V14.01,2013-09-11 23:41:00,
2013-09-11 19:46:00,82.2,72.3,29.99,North,360,4.0,5.0,72,0.00,,---,0.00,VWS V14.01,2013-09-11 23:46:00,
2013-09-11 19:50:00,82.0,72.5,29.99,North,360,0.0,5.0,73,0.00,,---,0.00,VWS V14.01,2013-09-11 23:50:00,
2013-09-11 19:51:00,81.9,72.4,29.99,North,360,1.0,1.0,73,0.00,,---,0.00,VWS V14.01,2013-09-11 23:51:00,
2013-09-11 19:56:00,81.7,72.2,29.99,North,360,2.0,5.0,73,0.00,,---,0.00,VWS V14.01,2013-09-11 23:56:00,
2013-09-11 20:00:00,81.6,72.1,29.99,North,360,5.0,6.0,73,0.00,,---,0.00,VWS V14.01,2013-09-12 00:00:00,
2013-09-11 20:01:00,81.5,72.0,29.99,North,360,3.0,5.0,73,0.00,,---,0.00,VWS V14.01,2013-09-12 00:01:00,
2013-09-11 20:06:00,81.5,72.4,29.99,North,360,3.0,7.0,74,0.00,,---,0.00,VWS V14.01,2013-09-12 00:06:00,
2013-09-11 20:10:00,81.4,72.3,29.99,North,360,5.0,7.0,74,0.00,,---,0.00,VWS V14.01,2013-09-12 00:10:00,
2013-09-11 20:11:00,81.4,72.3,29.99,North,360,4.0,5.0,74,0.00,,---,0.00,VWS V14.01,2013-09-12 00:11:00,
2013-09-11 20:16:00,81.2,72.1,29.99,North,360,3.0,5.0,74,0.00,,---,0.00,VWS V14.01,2013-09-12 00:16:00,
2013-09-11 20:20:00,81.2,72.1,29.99,North,360,3.0,6.0,74,0.00,,---,0.00,VWS V14.01,2013-09-12 00:20:00,
2013-09-11 20:21:00,81.2,72.1,29.99,North,360,2.0,3.0,74,0.00,,---,0.00,VWS V14.01,2013-09-12 00:21:00,
2013-09-11 20:26:00,81.2,72.1,29.99,North,360,2.0,6.0,74,0.00,,---,0.00,VWS V14.01,2013-09-12 00:26:00,
2013-09-11 20:30:00,81.0,71.9,29.99,North,360,2.0,6.0,74,0.00,,---,0.00,VWS V14.01,2013-09-12 00:30:00,
2013-09-11 20:31:00,81.0,72.3,29.99,North,360,2.0,3.0,75,0.00,,---,0.00,VWS V14.01,2013-09-12 00:31:00,
2013-09-11 20:36:00,80.9,72.2,29.99,North,360,5.0,7.0,75,0.00,,---,0.00,VWS V14.01,2013-09-12 00:36:00,
2013-09-11 20:40:00,80.8,72.1,30.00,North,360,3.0,7.0,75,0.00,,---,0.00,VWS V14.01,2013-09-12 00:40:00,
2013-09-11 20:41:00,80.8,72.1,30.00,North,360,2.0,3.0,75,0.00,,---,0.00,VWS V14.01,2013-09-12 00:41:00,
2013-09-11 20:46:00,80.7,72.4,30.00,North,360,5.0,5.0,76,0.00,,---,0.00,VWS V14.01,2013-09-12 00:46:00,
2013-09-11 20:50:00,80.8,72.5,30.00,North,360,1.0,5.0,76,0.00,,---,0.00,VWS V14.01,2013-09-12 00:50:00,
2013-09-11 20:51:00,80.7,72.4,30.00,North,360,3.0,3.0,76,0.00,,---,0.00,VWS V14.01,2013-09-12 00:51:00,
2013-09-11 20:56:00,80.6,72.3,30.00,North,360,6.0,6.0,76,0.00,,---,0.00,VWS V14.01,2013-09-12 00:56:00,
2013-09-11 21:00:00,80.5,72.6,30.00,North,360,2.0,7.0,77,0.00,,---,0.00,VWS V14.01,2013-09-12 01:00:00,
2013-09-11 21:01:00,80.5,72.6,30.00,North,360,0.0,2.0,77,0.00,,---,0.00,VWS V14.01,2013-09-12 01:01:00,
2013-09-11 21:06:00,80.5,72.6,30.00,North,360,2.0,6.0,77,0.00,,---,0.00,VWS V14.01,2013-09-12 01:06:00,
2013-09-11 21:10:00,80.4,72.5,30.00,North,360,4.0,7.0,77,0.00,,---,0.00,VWS V14.01,2013-09-12 01:10:00,
2013-09-11 21:11:00,80.4,72.5,30.00,North,360,1.0,4.0,77,0.00,,---,0.00,VWS V14.01,2013-09-12 01:11:00,
2013-09-11 21:16:00,80.3,72.8,30.00,North,360,4.0,7.0,78,0.00,,---,0.00,VWS V14.01,2013-09-12 01:16:00,
2013-09-11 21:20:00,80.3,72.8,30.00,North,360,4.0,7.0,78,0.00,,---,0.00,VWS V14.01,2013-09-12 01:20:00,
2013-09-11 21:21:00,80.3,72.8,30.00,North,360,5.0,5.0,78,0.00,,---,0.00,VWS V14.01,2013-09-12 01:21:00,
2013-09-11 21:26:00,80.3,72.8,30.00,North,360,5.0,6.0,78,0.00,,---,0.00,VWS V14.01,2013-09-12 01:26:00,
2013-09-11 21:30:00,80.2,73.1,30.00,North,360,4.0,6.0,79,0.00,,---,0.00,VWS V14.01,2013-09-12 01:30:00,
2013-09-11 21:31:00,80.2,73.1,30.00,North,360,6.0,6.0,79,0.00,,---,0.00,VWS V14.01,2013-09-12 01:31:00,
2013-09-11 21:36:00,80.0,72.9,30.00,North,360,3.0,8.0,79,0.00,,---,0.00,VWS V14.01,2013-09-12 01:36:00,
2013-09-11 21:40:00,80.0,72.9,30.00,North,360,2.0,8.0,79,0.00,,---,0.00,VWS V14.01,2013-09-12 01:40:00,
2013-09-11 21:41:00,80.0,72.9,30.00,North,360,3.0,3.0,79,0.00,,---,0.00,VWS V14.01,2013-09-12 01:41:00,
2013-09-11 21:46:00,79.9,72.8,30.01,North,360,3.0,7.0,79,0.00,,---,0.00,VWS V14.01,2013-09-12 01:46:00,
2013-09-11 21:50:00,79.9,73.2,30.01,North,360,3.0,7.0,80,0.00,,---,0.00,VWS V14.01,2013-09-12 01:50:00,
2013-09-11 21:51:00,79.9,73.2,30.01,North,360,3.0,3.0,80,0.00,,---,0.00,VWS V14.01,2013-09-12 01:51:00,
2013-09-11 21:56:00,79.8,73.1,30.01,North,360,5.0,8.0,80,0.00,,---,0.00,VWS V14.01,2013-09-12 01:56:00,
2013-09-11 22:00:00,79.8,73.1,30.01,North,360,6.0,8.0,80,0.00,,---,0.00,VWS V14.01,2013-09-12 02:00:00,
2013-09-11 22:01:00,79.7,73.0,30.01,North,360,3.0,6.0,80,0.00,,---,0.00,VWS V14.01,2013-09-12 02:01:00,
2013-09-11 22:06:00,79.7,73.4,30.02,North,360,5.0,7.0,81,0.00,,---,0.00,VWS V14.01,2013-09-12 02:06:00,
2013-09-11 22:10:00,79.5,73.2,30.02,North,360,5.0,10.0,81,0.00,,---,0.00,VWS V14.01,2013-09-12 02:10:00,
2013-09-11 22:11:00,79.5,73.2,30.02,North,360,2.0,5.0,81,0.00,,---,0.00,VWS V14.01,2013-09-12 02:11:00,
2013-09-11 22:16:00,79.5,73.2,30.01,North,360,4.0,6.0,81,0.00,,---,0.00,VWS V14.01,2013-09-12 02:16:00,
2013-09-11 22:20:00,79.4,73.4,30.01,North,360,4.0,8.0,82,0.00,,---,0.00,VWS V14.01,2013-09-12 02:20:00,
2013-09-11 22:21:00,79.4,73.4,30.01,North,360,6.0,6.0,82,0.00,,---,0.00,VWS V14.01,2013-09-12 02:21:00,
2013-09-11 22:26:00,79.3,73.3,30.01,North,360,5.0,10.0,82,0.00,,---,0.00,VWS V14.01,2013-09-12 02:26:00,
2013-09-11 22:30:00,79.2,73.2,30.01,North,360,4.0,10.0,82,0.00,,---,0.00,VWS V14.01,2013-09-12 02:30:00,
2013-09-11 22:31:00,79.2,73.2,30.01,North,360,4.0,5.0,82,0.00,,---,0.00,VWS V14.01,2013-09-12 02:31:00,
2013-09-11 22:36:00,79.1,73.5,30.02,North,360,6.0,9.0,83,0.00,,---,0.00,VWS V14.01,2013-09-12 02:36:00,
2013-09-11 22:40:00,79.0,73.4,30.02,North,360,5.0,9.0,83,0.00,,---,0.00,VWS V14.01,2013-09-12 02:40:00,
2013-09-11 22:41:00,79.0,73.4,30.02,North,360,4.0,5.0,83,0.00,,---,0.00,VWS V14.01,2013-09-12 02:41:00,
2013-09-11 22:46:00,78.9,73.3,30.01,North,360,2.0,5.0,83,0.00,,---,0.00,VWS V14.01,2013-09-12 02:46:00,
2013-09-11 22:50:00,78.9,73.3,30.02,North,360,3.0,7.0,83,0.00,,---,0.00,VWS V14.01,2013-09-12 02:50:00,
2013-09-11 22:51:00,78.8,73.2,30.01,North,360,3.0,4.0,83,0.00,,---,0.00,VWS V14.01,2013-09-12 02:51:00,
2013-09-11 22:56:00,78.7,73.1,30.01,North,360,3.0,4.0,83,0.00,,---,0.00,VWS V14.01,2013-09-12 02:56:00,
2013-09-11 23:00:00,78.6,73.4,30.02,North,360,0.0,4.0,84,0.00,,---,0.00,VWS V14.01,2013-09-12 03:00:00,
2013-09-11 23:01:00,78.6,73.4,30.01,North,360,0.0,0.0,84,0.00,,---,0.00,VWS V14.01,2013-09-12 03:01:00,
2013-09-11 23:06:00,78.4,73.2,30.01,North,360,0.0,5.0,84,0.00,,---,0.00,VWS V14.01,2013-09-12 03:06:00,
2013-09-11 23:10:00,78.2,73.0,30.01,North,360,4.0,6.0,84,0.00,,---,0.00,VWS V14.01,2013-09-12 03:10:00,
2013-09-11 23:11:00,78.2,73.3,30.01,North,360,3.0,4.0,85,0.00,,---,0.00,VWS V14.01,2013-09-12 03:11:00,
2013-09-11 23:16:00,78.1,73.2,30.02,North,360,1.0,4.0,85,0.00,,---,0.00,VWS V14.01,2013-09-12 03:16:00,
2013-09-11 23:20:00,77.9,73.0,30.02,North,360,1.0,4.0,85,0.00,,---,0.00,VWS V14.01,2013-09-12 03:20:00,
2013-09-11 23:21:00,77.9,73.0,30.02,North,360,2.0,2.0,85,0.00,,---,0.00,VWS V14.01,2013-09-12 03:21:00,
2013-09-11 23:26:00,77.7,73.2,30.02,North,360,2.0,5.0,86,0.00,,---,0.00,VWS V14.01,2013-09-12 03:26:00,
2013-09-11 23:30:00,77.6,73.1,30.02,North,360,2.0,7.0,86,0.00,,---,0.00,VWS V14.01,2013-09-12 03:30:00,
2013-09-11 23:31:00,77.6,73.1,30.02,North,360,2.0,2.0,86,0.00,,---,0.00,VWS V14.01,2013-09-12 03:31:00,
2013-09-11 23:36:00,77.6,73.4,30.02,North,360,2.0,5.0,87,0.00,,---,0.00,VWS V14.01,2013-09-12 03:36:00,
2013-09-11 23:40:00,77.7,73.5,30.02,North,360,1.0,5.0,87,0.00,,---,0.00,VWS V14.01,2013-09-12 03:40:00,
2013-09-11 23:41:00,77.7,73.5,30.02,North,360,2.0,2.0,87,0.00,,---,0.00,VWS V14.01,2013-09-12 03:41:00,
2013-09-11 23:46:00,77.7,73.5,30.02,North,360,0.0,4.0,87,0.00,,---,0.00,VWS V14.01,2013-09-12 03:46:00,
2013-09-11 23:50:00,77.6,73.4,30.02,North,360,2.0,4.0,87,0.00,,---,0.00,VWS V14.01,2013-09-12 03:50:00,
2013-09-11 23:51:00,77.6,73.4,30.02,North,360,2.0,2.0,87,0.00,,---,0.00,VWS V14.01,2013-09-12 03:51:00,
2013-09-11 23:56:00,77.6,73.4,30.02,North,360,0.0,3.0,87,0.00,,---,0.00,VWS V14.01,2013-09-12 03:56:00,